{"data":{"norad_id":59846,"intl_designator":"2024-097M","name":"STARLINK-31922","alt_names":[],"object_type":"PAYLOAD","status":"ACTIVE","operator":null,"country":"US","launch_date":"2024-05-23","launch_site_code":"AFETR","launch_vehicle":null,"mission":null,"orbit_class":"UNKNOWN","rcs_meters":null,"size_class":null,"mass_kg":null,"dimensions":null,"purposes":["comms"],"wikipedia_slug":null,"has_3d_model":false,"image_url":null,"decayed_at":null,"tle_current":{"epoch":"2026-09-21T22:27:46.528416Z","epoch_age_seconds":50431,"freshness":"FRESH","line1":"1 59846U 24097M   26264.93595519  .00000068  00000+0  11983-4 0  9999","line2":"2 59846  43.0032 245.7575 0001013 271.7041  88.3694 15.27574358131930","mean_motion":15.27574358,"eccentricity":0.0001013,"inclination_deg":43.0032,"raan_deg":245.7575,"arg_perigee_deg":271.7041,"mean_anomaly_deg":88.3694,"bstar":1.1983e-5,"rev_number":13193,"period_min":94.267096881971,"perigee_km":482.37095040644,"apogee_km":483.76103013226,"semimajor_km":6861.2029902693,"source":"CELESTRAK","updated_at":"2026-09-22T09:00:49.097358Z"}}}